User: anonymous   Login
Location: Unspecified
(0.0000°N, 0.0000°E)
Time: 04:09:19
(UTC+00:00)
Language:

USA 229 DEB - Orbit

View from above orbital plane
View from above orbital plane
View from above satellite
View from above satellite

Ground track
Ground track

The orbit data is extracted from the following two-line orbital elements,

1 37391U 11014B   18020.20170970 0.00000000  00000-0  00000-0 0    00
2 37391  63.4380 184.0293 0087000   2.6350 357.3650 13.40746816    06
Epoch (UTC): 20 January 2018 04:50:27
Eccentricity: 0.0087000
inclination: 63.4380°
perigee height: 1041 km
apogee height: 1171 km
right ascension of ascending node: 184.0293°
argument of perigee: 2.6350°
revolutions per day: 13.40746816
mean anomaly at epoch: 357.3650°
orbit number at epoch: 0

The dashed part of the orbit path shows where the satellite is in the earth's shadow,  

DLR